Home   Weather   Neuruppin   Past weeks

Flag for Germany Past Weather in Neuruppin, Brandenburg, Germany — Yesterday and Last 2 Weeks

Now
37 °F

Low clouds.


Feels Like: 32 °F
Forecast: 20 / 31 °F
Wind: 7 mph from West

Location: Berlin-Tegel

Current Time: Jan 21, 2017 at 12:19:23 pm

Latest Report: Jan 21, 2017 at 11:50 am


Visibility: 4 mi

Pressure: 30.51 "Hg

Humidity: 87%

Dew Point: 34 °F

Location of NeuruppinLocation

Past Weather in Neuruppin — Graph

°F

Neuruppin Temperature Yesterday

Maximum temperature yesterday: 34 °F (at 12:20 pm)
Minimum temperature yesterday: 30 °F (at 12:20 am)
Average temperature yesterday: 32 °F

High & Low Weather Summary for the Past Weeks

 TemperatureHumidityPressure
High41 °F (Jan 12, 1:50 pm)100% (Jan 7, 5:50 pm)30.77 "Hg (Jan 7, 5:50 pm)
Low16 °F (Jan 6, 11:20 pm)63% (Jan 7, 12:50 pm)29.00 "Hg (Jan 13, 7:50 am)
Average29 °F88%30.17 "Hg
* Reported Jan 6 11:20 am — Jan 21 11:20 am, Neuruppin, Weather by CustomWeather, © 2017

Note: Actual official high and low records may vary slightly from our data, if they occured in-between our weather recording intervals... More about our weather records

Advertising

Neuruppin Weather History for the Previous 24 Hours

Scroll right to see more
 ConditionsComfort  
Time TempWeatherWind HumidityBarometerVisibility
11:20 am
Sat, Jan 21
36 °FFog.6 mph93%30.51 "Hg3 mi
10:50 am36 °FFog.7 mph93%30.51 "Hg2 mi
10:20 am36 °FFog.5 mph93%30.51 "Hg2 mi
9:50 am36 °FFog.7 mph93%30.51 "Hg2 mi
9:20 am36 °FFog.6 mph93%30.51 "Hg2 mi
8:50 am36 °FFog.5 mph93%30.51 "Hg2 mi
8:20 am36 °FFog.7 mph93%30.51 "Hg2 mi
7:50 am36 °FFog.7 mph93%30.51 "Hg2 mi
7:20 am34 °FFog.6 mph100%30.48 "Hg2 mi
6:50 am34 °FFog.6 mph100%30.48 "Hg2 mi
6:20 am34 °FFog.5 mph100%30.48 "Hg3 mi
5:50 am34 °FFog.5 mph100%30.48 "Hg2 mi
5:20 am34 °FFog.6 mph100%30.48 "Hg2 mi
4:50 am34 °FFog.6 mph100%30.48 "Hg2 mi
4:20 am34 °FFog.5 mph93%30.48 "Hg2 mi
3:50 am34 °FFog.3 mph100%30.51 "Hg2 mi
3:20 am34 °FFog.2 mph100%30.51 "Hg3 mi
2:50 am34 °FFog.2 mph93%30.51 "Hg3 mi
2:20 am34 °FFog.2 mph100%30.51 "Hg2 mi
1:50 am34 °FFog.3 mph100%30.51 "Hg2 mi
1:20 am34 °FFog.5 mph100%30.51 "Hg2 mi
12:50 am34 °FFog.5 mph93%30.51 "Hg2 mi
12:20 am34 °FFog.3 mph100%30.51 "Hg2 mi
11:50 pm
Fri, Jan 20
34 °FFog.5 mph100%30.54 "Hg2 mi
11:20 pm34 °FFog.3 mph93%30.54 "Hg2 mi
10:50 pm34 °FFog.5 mph93%30.54 "Hg2 mi
10:20 pm34 °FFog.3 mph93%30.54 "Hg2 mi
9:50 pm34 °FFog.5 mph93%30.54 "Hg2 mi
9:20 pm34 °FFog.5 mph93%30.54 "Hg2 mi
8:50 pm34 °FFog.5 mph93%30.54 "Hg2 mi
8:20 pm34 °FFog.5 mph93%30.54 "Hg2 mi
7:50 pm34 °FFog.6 mph93%30.54 "Hg2 mi
7:20 pm34 °FFog.6 mph93%30.54 "Hg2 mi
6:50 pm34 °FDrizzle. Fog.5 mph93%30.54 "Hg2 mi
6:20 pm34 °FDrizzle. Fog.7 mph93%30.54 "Hg2 mi
5:50 pm34 °FFog.6 mph93%30.54 "Hg2 mi
5:20 pm34 °FFog.6 mph93%30.54 "Hg2 mi
4:50 pm34 °FFog.6 mph93%30.54 "Hg2 mi
4:20 pm34 °FFog.5 mph93%30.54 "Hg2 mi
3:50 pm34 °FFog.7 mph93%30.54 "Hg2 mi
3:20 pm34 °FFog.8 mph93%30.54 "Hg2 mi
2:50 pm34 °FFog.8 mph93%30.54 "Hg2 mi
2:20 pm34 °FFog.7 mph93%30.54 "Hg2 mi
1:50 pm34 °FFog.7 mph93%30.57 "Hg2 mi
1:20 pm34 °FFog.7 mph93%30.57 "Hg2 mi
12:50 pm34 °FFog.8 mph93%30.57 "Hg2 mi
12:20 pm34 °FFog.8 mph87%30.57 "Hg3 mi
Weather by CustomWeather, © 2017

See weather overviewHow to use our weather pages